Year,Month,Day,Hour,Minute,Value (Times are PST for temperature in C)
2015,09,27,00,00,10.40
2015,09,27,00,01,10.40
2015,09,27,00,02,10.30
2015,09,27,00,03,10.30
2015,09,27,00,04,10.30
2015,09,27,00,05,10.30
2015,09,27,00,06,10.30
2015,09,27,00,07,10.20
2015,09,27,00,08,10.20
2015,09,27,00,09,10.20
2015,09,27,00,10,10.20
2015,09,27,00,11,10.10
2015,09,27,00,12,10.10
2015,09,27,00,13,10.10
2015,09,27,00,14,10.00
2015,09,27,00,15,10.00
2015,09,27,00,16,10.00
2015,09,27,00,17,9.90
2015,09,27,00,18,9.90
2015,09,27,00,19,9.90
2015,09,27,00,20,9.80
2015,09,27,00,21,9.80
2015,09,27,00,22,9.80
2015,09,27,00,23,9.80
2015,09,27,00,24,9.80
2015,09,27,00,25,9.70
2015,09,27,00,26,9.70
2015,09,27,00,27,9.70
2015,09,27,00,28,9.60
2015,09,27,00,29,9.60
2015,09,27,00,30,9.60
2015,09,27,00,31,9.50
2015,09,27,00,32,9.40
2015,09,27,00,33,9.40
2015,09,27,00,34,9.40
2015,09,27,00,35,9.40
2015,09,27,00,36,9.30
2015,09,27,00,37,9.30
2015,09,27,00,38,9.30
2015,09,27,00,39,9.30
2015,09,27,00,40,9.30
2015,09,27,00,41,9.30
2015,09,27,00,42,9.20
2015,09,27,00,43,9.20
2015,09,27,00,44,9.10
2015,09,27,00,45,9.10
2015,09,27,00,46,9.10
2015,09,27,00,47,9.00
2015,09,27,00,48,9.00
2015,09,27,00,49,8.90
2015,09,27,00,50,8.90
2015,09,27,00,51,8.90
2015,09,27,00,52,8.90
2015,09,27,00,53,8.80
2015,09,27,00,54,8.80
2015,09,27,00,55,8.80
2015,09,27,00,56,8.80
2015,09,27,00,57,8.70
2015,09,27,00,58,8.70
2015,09,27,00,59,8.70
2015,09,27,01,00,8.70
2015,09,27,01,01,8.60
2015,09,27,01,02,8.60
2015,09,27,01,03,8.60
2015,09,27,01,04,8.60
2015,09,27,01,05,8.50
2015,09,27,01,06,8.50
2015,09,27,01,07,8.40
2015,09,27,01,08,8.40
2015,09,27,01,09,8.40
2015,09,27,01,10,8.40
2015,09,27,01,11,8.30
2015,09,27,01,12,8.30
2015,09,27,01,13,8.30
2015,09,27,01,14,8.30
2015,09,27,01,15,8.30
2015,09,27,01,16,8.30
2015,09,27,01,17,8.30
2015,09,27,01,18,8.20
2015,09,27,01,19,8.20
2015,09,27,01,20,8.20
2015,09,27,01,21,8.20
2015,09,27,01,22,8.20
2015,09,27,01,23,8.20
2015,09,27,01,24,8.20
2015,09,27,01,25,8.20
2015,09,27,01,26,8.20
2015,09,27,01,27,8.20
2015,09,27,01,28,8.10
2015,09,27,01,29,8.10
2015,09,27,01,30,8.10
2015,09,27,01,31,8.10
2015,09,27,01,32,8.10
2015,09,27,01,33,8.10
2015,09,27,01,34,8.10
2015,09,27,01,35,8.10
2015,09,27,01,36,8.10
2015,09,27,01,37,8.10
2015,09,27,01,38,8.00
2015,09,27,01,39,8.00
2015,09,27,01,40,8.00
2015,09,27,01,41,7.90
2015,09,27,01,42,7.90
2015,09,27,01,43,7.90
2015,09,27,01,44,7.90
2015,09,27,01,45,7.90
2015,09,27,01,46,7.90
2015,09,27,01,47,7.80
2015,09,27,01,48,7.80
2015,09,27,01,49,7.80
2015,09,27,01,50,7.80
2015,09,27,01,51,7.80
2015,09,27,01,52,7.80
2015,09,27,01,53,7.80
2015,09,27,01,54,7.80
2015,09,27,01,55,7.80
2015,09,27,01,56,7.80
2015,09,27,01,57,7.80
2015,09,27,01,58,7.80
2015,09,27,01,59,7.80
2015,09,27,02,00,7.70
2015,09,27,02,01,7.70
2015,09,27,02,02,7.70
2015,09,27,02,03,7.70
2015,09,27,02,04,7.70
2015,09,27,02,05,7.70
2015,09,27,02,06,7.60
2015,09,27,02,07,7.60
2015,09,27,02,08,7.60
2015,09,27,02,09,7.60
2015,09,27,02,10,7.60
2015,09,27,02,11,7.50
2015,09,27,02,12,7.50
2015,09,27,02,13,7.50
2015,09,27,02,14,7.40
2015,09,27,02,15,7.40
2015,09,27,02,16,7.40
2015,09,27,02,17,7.40
2015,09,27,02,18,7.40
2015,09,27,02,19,7.40
2015,09,27,02,20,7.40
2015,09,27,02,21,7.40
2015,09,27,02,22,7.30
2015,09,27,02,23,7.30
2015,09,27,02,24,7.30
2015,09,27,02,25,7.30
2015,09,27,02,26,7.30
2015,09,27,02,27,7.30
2015,09,27,02,28,7.30
2015,09,27,02,29,7.30
2015,09,27,02,30,7.30
2015,09,27,02,31,7.20
2015,09,27,02,32,7.20
2015,09,27,02,33,7.20
2015,09,27,02,34,7.20
2015,09,27,02,35,7.10
2015,09,27,02,36,7.10
2015,09,27,02,37,7.10
2015,09,27,02,38,7.10
2015,09,27,02,39,7.10
2015,09,27,02,40,7.00
2015,09,27,02,41,7.00
2015,09,27,02,42,6.90
2015,09,27,02,43,6.90
2015,09,27,02,44,6.90
2015,09,27,02,45,6.90
2015,09,27,02,46,6.80
2015,09,27,02,47,6.80
2015,09,27,02,48,6.80
2015,09,27,02,49,6.80
2015,09,27,02,50,6.80
2015,09,27,02,51,6.80
2015,09,27,02,52,6.70
2015,09,27,02,53,6.70
2015,09,27,02,54,6.70
2015,09,27,02,55,6.70
2015,09,27,02,56,6.70
2015,09,27,02,57,6.60
2015,09,27,02,58,6.60
2015,09,27,02,59,6.60
2015,09,27,03,00,6.60
2015,09,27,03,01,6.50
2015,09,27,03,02,6.50
2015,09,27,03,03,6.50
2015,09,27,03,04,6.50
2015,09,27,03,05,6.50
2015,09,27,03,06,6.50
2015,09,27,03,07,6.50
2015,09,27,03,08,6.40
2015,09,27,03,09,6.40
2015,09,27,03,10,6.40
2015,09,27,03,11,6.40
2015,09,27,03,12,6.40
2015,09,27,03,13,6.40
2015,09,27,03,14,6.30
2015,09,27,03,15,6.30
2015,09,27,03,16,6.30
2015,09,27,03,17,6.30
2015,09,27,03,18,6.30
2015,09,27,03,19,6.30
2015,09,27,03,20,6.30
2015,09,27,03,21,6.30
2015,09,27,03,22,6.30
2015,09,27,03,23,6.30
2015,09,27,03,24,6.30
2015,09,27,03,25,6.20
2015,09,27,03,26,6.20
2015,09,27,03,27,6.20
2015,09,27,03,28,6.20
2015,09,27,03,29,6.20
2015,09,27,03,30,6.20
2015,09,27,03,31,6.20
2015,09,27,03,32,6.20
2015,09,27,03,33,6.20
2015,09,27,03,34,6.10
2015,09,27,03,35,6.10
2015,09,27,03,36,6.10
2015,09,27,03,37,6.10
2015,09,27,03,38,6.10
2015,09,27,03,39,6.10
2015,09,27,03,40,6.10
2015,09,27,03,41,6.10
2015,09,27,03,42,6.10
2015,09,27,03,43,6.10
2015,09,27,03,44,6.10
2015,09,27,03,45,6.10
2015,09,27,03,46,6.10
2015,09,27,03,47,6.10
2015,09,27,03,48,6.10
2015,09,27,03,49,6.10
2015,09,27,03,50,6.10
2015,09,27,03,51,6.10
2015,09,27,03,52,6.00
2015,09,27,03,53,6.00
2015,09,27,03,54,6.00
2015,09,27,03,55,6.00
2015,09,27,03,56,6.00
2015,09,27,03,57,6.00
2015,09,27,03,58,5.90
2015,09,27,03,59,5.90
2015,09,27,04,00,5.90
2015,09,27,04,01,5.90
2015,09,27,04,02,5.90
2015,09,27,04,03,5.90
2015,09,27,04,04,5.90
2015,09,27,04,05,5.80
2015,09,27,04,06,5.80
2015,09,27,04,07,5.80
2015,09,27,04,08,5.80
2015,09,27,04,09,5.80
2015,09,27,04,10,5.80
2015,09,27,04,11,5.80
2015,09,27,04,12,5.80
2015,09,27,04,13,5.80
2015,09,27,04,14,5.80
2015,09,27,04,15,5.80
2015,09,27,04,16,5.80
2015,09,27,04,17,5.80
2015,09,27,04,18,5.80
2015,09,27,04,19,5.80
2015,09,27,04,20,5.80
2015,09,27,04,21,5.80
2015,09,27,04,22,5.80
2015,09,27,04,23,5.80
2015,09,27,04,24,5.70
2015,09,27,04,25,5.70
2015,09,27,04,26,5.70
2015,09,27,04,27,5.70
2015,09,27,04,28,5.70
2015,09,27,04,29,5.70
2015,09,27,04,30,5.70
2015,09,27,04,31,5.60
2015,09,27,04,32,5.60
2015,09,27,04,33,5.60
2015,09,27,04,34,5.60
2015,09,27,04,35,5.60
2015,09,27,04,36,5.60
2015,09,27,04,37,5.60
2015,09,27,04,38,5.60
2015,09,27,04,39,5.50
2015,09,27,04,40,5.50
2015,09,27,04,41,5.50
2015,09,27,04,42,5.50
2015,09,27,04,43,5.50
2015,09,27,04,44,5.50
2015,09,27,04,45,5.50
2015,09,27,04,46,5.40
2015,09,27,04,47,5.40
2015,09,27,04,48,5.40
2015,09,27,04,49,5.40
2015,09,27,04,50,5.40
2015,09,27,04,51,5.40
2015,09,27,04,52,5.40
2015,09,27,04,53,5.40
2015,09,27,04,54,5.40
2015,09,27,04,55,5.40
2015,09,27,04,56,5.40
2015,09,27,04,57,5.40
2015,09,27,04,58,5.40
2015,09,27,04,59,5.40
2015,09,27,05,00,5.40
2015,09,27,05,01,5.40
2015,09,27,05,02,5.40
2015,09,27,05,03,5.40
2015,09,27,05,04,5.40
2015,09,27,05,05,5.40
2015,09,27,05,06,5.40
2015,09,27,05,07,5.40
2015,09,27,05,08,5.40
2015,09,27,05,09,5.40
2015,09,27,05,10,5.40
2015,09,27,05,11,5.40
2015,09,27,05,12,5.40
2015,09,27,05,13,5.40
2015,09,27,05,14,5.40
2015,09,27,05,15,5.40
2015,09,27,05,16,5.40
2015,09,27,05,17,5.40
2015,09,27,05,18,5.40
2015,09,27,05,19,5.40
2015,09,27,05,20,5.40
2015,09,27,05,21,5.40
2015,09,27,05,22,5.40
2015,09,27,05,23,5.40
2015,09,27,05,24,5.40
2015,09,27,05,25,5.40
2015,09,27,05,26,5.40
2015,09,27,05,27,5.40
2015,09,27,05,28,5.40
2015,09,27,05,29,5.40
2015,09,27,05,30,5.40
2015,09,27,05,31,5.40
2015,09,27,05,32,5.40
2015,09,27,05,33,5.40
2015,09,27,05,34,5.40
2015,09,27,05,35,5.40
2015,09,27,05,36,5.40
2015,09,27,05,37,5.40
2015,09,27,05,38,5.40
2015,09,27,05,39,5.50
2015,09,27,05,40,5.50
2015,09,27,05,41,5.50
2015,09,27,05,42,5.50
2015,09,27,05,43,5.50
2015,09,27,05,44,5.50
2015,09,27,05,45,5.60
2015,09,27,05,46,5.60
2015,09,27,05,47,5.60
2015,09,27,05,48,5.60
2015,09,27,05,49,5.60
2015,09,27,05,50,5.60
2015,09,27,05,51,5.60
2015,09,27,05,52,5.60
2015,09,27,05,53,5.60
2015,09,27,05,54,5.60
2015,09,27,05,55,5.60
2015,09,27,05,56,5.60
2015,09,27,05,57,5.60
2015,09,27,05,58,5.60
2015,09,27,05,59,5.60
2015,09,27,06,00,5.60
2015,09,27,06,01,5.60
2015,09,27,06,02,5.60
2015,09,27,06,03,5.70
2015,09,27,06,04,5.70
2015,09,27,06,05,5.70
2015,09,27,06,06,5.70
2015,09,27,06,07,5.70
2015,09,27,06,08,5.70
2015,09,27,06,09,5.70
2015,09,27,06,10,5.70
2015,09,27,06,11,5.70
2015,09,27,06,12,5.70
2015,09,27,06,13,5.70
2015,09,27,06,14,5.70
2015,09,27,06,15,5.70
2015,09,27,06,16,5.70
2015,09,27,06,17,5.70
2015,09,27,06,18,5.70
2015,09,27,06,19,5.70
2015,09,27,06,20,5.70
2015,09,27,06,21,5.70
2015,09,27,06,22,5.70
2015,09,27,06,23,5.70
2015,09,27,06,24,5.70
2015,09,27,06,25,5.70
2015,09,27,06,26,5.70
2015,09,27,06,27,5.70
2015,09,27,06,28,5.60
2015,09,27,06,29,5.70
2015,09,27,06,30,5.70
2015,09,27,06,31,5.70
2015,09,27,06,32,5.60
2015,09,27,06,33,5.70
2015,09,27,06,34,5.70
2015,09,27,06,35,5.70
2015,09,27,06,36,5.60
2015,09,27,06,37,5.60
2015,09,27,06,38,5.60
2015,09,27,06,39,5.60
2015,09,27,06,40,5.60
2015,09,27,06,41,5.60
2015,09,27,06,42,5.60
2015,09,27,06,43,5.60
2015,09,27,06,44,5.60
2015,09,27,06,45,5.60
2015,09,27,06,46,5.60
2015,09,27,06,47,5.60
2015,09,27,06,48,5.60
2015,09,27,06,49,5.60
2015,09,27,06,50,5.60
2015,09,27,06,51,5.60
2015,09,27,06,52,5.50
2015,09,27,06,53,5.50
2015,09,27,06,54,5.50
2015,09,27,06,55,5.50
2015,09,27,06,56,5.50
2015,09,27,06,57,5.50
2015,09,27,06,58,5.50
2015,09,27,06,59,5.50
2015,09,27,07,00,5.50
2015,09,27,07,01,5.50
2015,09,27,07,02,5.60
2015,09,27,07,03,5.60
2015,09,27,07,04,5.60
2015,09,27,07,05,5.60
2015,09,27,07,06,5.60
2015,09,27,07,07,5.60
2015,09,27,07,08,5.60
2015,09,27,07,09,5.60
2015,09,27,07,10,5.60
2015,09,27,07,11,5.60
2015,09,27,07,12,5.60
2015,09,27,07,13,5.70
2015,09,27,07,14,5.70
2015,09,27,07,15,5.70
2015,09,27,07,16,5.70
2015,09,27,07,17,5.70
2015,09,27,07,18,5.70
2015,09,27,07,19,5.70
2015,09,27,07,20,5.70
2015,09,27,07,21,5.70
2015,09,27,07,22,5.70
2015,09,27,07,23,5.70
2015,09,27,07,24,5.70
2015,09,27,07,25,5.70
2015,09,27,07,26,5.80
2015,09,27,07,27,5.80
2015,09,27,07,28,5.80
2015,09,27,07,29,5.80
2015,09,27,07,30,5.80
2015,09,27,07,31,5.80
2015,09,27,07,32,5.80
2015,09,27,07,33,5.90
2015,09,27,07,34,5.90
2015,09,27,07,35,5.90
2015,09,27,07,36,5.90
2015,09,27,07,37,5.90
2015,09,27,07,38,6.00
2015,09,27,07,39,6.00
2015,09,27,07,40,6.00
2015,09,27,07,41,6.00
2015,09,27,07,42,6.00
2015,09,27,07,43,6.00
2015,09,27,07,44,6.10
2015,09,27,07,45,6.10
2015,09,27,07,46,6.10
2015,09,27,07,47,6.10
2015,09,27,07,48,6.10
2015,09,27,07,49,6.10
2015,09,27,07,50,6.10
2015,09,27,07,51,6.10
2015,09,27,07,52,6.10
2015,09,27,07,53,6.10
2015,09,27,07,54,6.10
2015,09,27,07,55,6.10
2015,09,27,07,56,6.10
2015,09,27,07,57,6.20
2015,09,27,07,58,6.20
2015,09,27,07,59,6.20
2015,09,27,08,00,6.20
2015,09,27,08,01,6.20
2015,09,27,08,02,6.20
2015,09,27,08,03,6.20
2015,09,27,08,04,6.20
2015,09,27,08,05,6.30
2015,09,27,08,06,6.30
2015,09,27,08,07,6.30
2015,09,27,08,08,6.30
2015,09,27,08,09,6.30
2015,09,27,08,10,6.40
2015,09,27,08,11,6.40
2015,09,27,08,12,6.40
2015,09,27,08,13,6.40
2015,09,27,08,14,6.50
2015,09,27,08,15,6.50
2015,09,27,08,16,6.60
2015,09,27,08,17,6.60
2015,09,27,08,18,6.60
2015,09,27,08,19,6.70
2015,09,27,08,20,6.70
2015,09,27,08,21,6.70
2015,09,27,08,22,6.70
2015,09,27,08,23,6.70
2015,09,27,08,24,6.70
2015,09,27,08,25,6.70
2015,09,27,08,26,6.70
2015,09,27,08,27,6.80
2015,09,27,08,28,6.80
2015,09,27,08,29,6.80
2015,09,27,08,30,6.80
2015,09,27,08,31,6.90
2015,09,27,08,32,6.90
2015,09,27,08,33,6.90
2015,09,27,08,34,6.90
2015,09,27,08,35,6.90
2015,09,27,08,36,6.90
2015,09,27,08,37,7.00
2015,09,27,08,38,7.00
2015,09,27,08,39,7.00
2015,09,27,08,40,7.00
2015,09,27,08,41,7.10
2015,09,27,08,42,7.10
2015,09,27,08,43,7.10
2015,09,27,08,44,7.10
2015,09,27,08,45,7.10
2015,09,27,08,46,7.10
2015,09,27,08,47,7.10
2015,09,27,08,48,7.20
2015,09,27,08,49,7.20
2015,09,27,08,50,7.20
2015,09,27,08,51,7.20
2015,09,27,08,52,7.20
2015,09,27,08,53,7.20
2015,09,27,08,54,7.20
2015,09,27,08,55,7.20
2015,09,27,08,56,7.20
2015,09,27,08,57,7.20
2015,09,27,08,58,7.20
2015,09,27,08,59,7.20
2015,09,27,09,00,7.30
2015,09,27,09,01,7.30
2015,09,27,09,02,7.30
2015,09,27,09,03,7.40
2015,09,27,09,04,7.40
2015,09,27,09,05,7.40
2015,09,27,09,06,7.50
2015,09,27,09,07,7.50
2015,09,27,09,08,7.50
2015,09,27,09,09,7.60
2015,09,27,09,10,7.60
2015,09,27,09,11,7.60
2015,09,27,09,12,7.60
2015,09,27,09,13,7.70
2015,09,27,09,14,7.70
2015,09,27,09,15,7.70
2015,09,27,09,16,7.70
2015,09,27,09,17,7.80
2015,09,27,09,18,7.80
2015,09,27,09,19,7.80
2015,09,27,09,20,7.90
2015,09,27,09,21,7.90
2015,09,27,09,22,7.90
2015,09,27,09,23,7.90
2015,09,27,09,24,8.00
2015,09,27,09,25,8.00
2015,09,27,09,26,8.00
2015,09,27,09,27,8.10
2015,09,27,09,28,8.10
2015,09,27,09,29,8.10
2015,09,27,09,30,8.10
2015,09,27,09,31,8.10
2015,09,27,09,32,8.10
2015,09,27,09,33,8.10
2015,09,27,09,34,8.10
2015,09,27,09,35,8.10
2015,09,27,09,36,8.20
2015,09,27,09,37,8.20
2015,09,27,09,38,8.20
2015,09,27,09,39,8.20
2015,09,27,09,40,8.20
2015,09,27,09,41,8.30
2015,09,27,09,42,8.30
2015,09,27,09,43,8.30
2015,09,27,09,44,8.30
2015,09,27,09,45,8.30
2015,09,27,09,46,8.40
2015,09,27,09,47,8.40
2015,09,27,09,48,8.40
2015,09,27,09,49,8.40
2015,09,27,09,50,8.40
2015,09,27,09,51,8.50
2015,09,27,09,52,8.50
2015,09,27,09,53,8.50
2015,09,27,09,54,8.60
2015,09,27,09,55,8.60
2015,09,27,09,56,8.60
2015,09,27,09,57,8.60
2015,09,27,09,58,8.60
2015,09,27,09,59,8.60
2015,09,27,10,00,8.60
2015,09,27,10,01,8.60
2015,09,27,10,02,8.60
2015,09,27,10,03,8.70
2015,09,27,10,04,8.70
2015,09,27,10,05,8.70
2015,09,27,10,06,8.80
2015,09,27,10,07,8.80
2015,09,27,10,08,8.80
2015,09,27,10,09,8.80
2015,09,27,10,10,8.80
2015,09,27,10,11,8.80
2015,09,27,10,12,8.80
2015,09,27,10,13,8.80
2015,09,27,10,14,8.80
2015,09,27,10,15,8.80
2015,09,27,10,16,8.80
2015,09,27,10,17,8.80
2015,09,27,10,18,8.80
2015,09,27,10,19,8.80
2015,09,27,10,20,8.80
2015,09,27,10,21,8.80
2015,09,27,10,22,8.80
2015,09,27,10,23,8.80
2015,09,27,10,24,8.80
2015,09,27,10,25,8.80
2015,09,27,10,26,8.80
2015,09,27,10,27,8.80
2015,09,27,10,28,8.80
2015,09,27,10,29,8.90
2015,09,27,10,30,8.90
2015,09,27,10,31,8.90
2015,09,27,10,32,9.00
2015,09,27,10,33,9.00
2015,09,27,10,34,9.00
2015,09,27,10,35,9.00
2015,09,27,10,36,9.10
2015,09,27,10,37,9.10
2015,09,27,10,38,9.00
2015,09,27,10,39,9.10
2015,09,27,10,40,9.10
2015,09,27,10,41,9.10
2015,09,27,10,42,9.10
2015,09,27,10,43,9.10
2015,09,27,10,44,9.20
2015,09,27,10,45,9.20
2015,09,27,10,46,9.30
2015,09,27,10,47,9.30
2015,09,27,10,48,9.30
2015,09,27,10,49,9.40
2015,09,27,10,50,9.40
2015,09,27,10,51,9.40
2015,09,27,10,52,9.50
2015,09,27,10,53,9.50
2015,09,27,10,54,9.60
2015,09,27,10,55,9.60
2015,09,27,10,56,9.60
2015,09,27,10,57,9.70
2015,09,27,10,58,9.80
2015,09,27,10,59,9.80
2015,09,27,11,00,9.80
2015,09,27,11,01,9.80
2015,09,27,11,02,9.90
2015,09,27,11,03,9.90
2015,09,27,11,04,9.90
2015,09,27,11,05,10.00
2015,09,27,11,06,10.10
2015,09,27,11,07,10.20
2015,09,27,11,08,10.20
2015,09,27,11,09,10.30
2015,09,27,11,10,10.30
2015,09,27,11,11,10.40
2015,09,27,11,12,10.40
2015,09,27,11,13,10.50
2015,09,27,11,14,10.50
2015,09,27,11,15,10.50
2015,09,27,11,16,10.60
2015,09,27,11,17,10.60
2015,09,27,11,18,10.70
2015,09,27,11,19,10.70
2015,09,27,11,20,10.80
2015,09,27,11,21,10.80
2015,09,27,11,22,10.90
2015,09,27,11,23,11.00
2015,09,27,11,24,11.00
2015,09,27,11,25,11.10
2015,09,27,11,26,11.10
2015,09,27,11,27,11.10
2015,09,27,11,28,11.10
2015,09,27,11,29,11.10
2015,09,27,11,30,11.20
2015,09,27,11,31,11.20
2015,09,27,11,32,11.30
2015,09,27,11,33,11.30
2015,09,27,11,34,11.30
2015,09,27,11,35,11.40
2015,09,27,11,36,11.50
2015,09,27,11,37,11.60
2015,09,27,11,38,11.70
2015,09,27,11,39,11.70
2015,09,27,11,40,11.80
2015,09,27,11,41,11.80
2015,09,27,11,42,11.90
2015,09,27,11,43,11.90
2015,09,27,11,44,12.00
2015,09,27,11,45,12.10
2015,09,27,11,46,12.20
2015,09,27,11,47,12.30
2015,09,27,11,48,12.40
2015,09,27,11,49,12.40
2015,09,27,11,50,12.40
2015,09,27,11,51,12.40
2015,09,27,11,52,12.30
2015,09,27,11,53,12.30
2015,09,27,11,54,12.30
2015,09,27,11,55,12.40
2015,09,27,11,56,12.50
2015,09,27,11,57,12.50
2015,09,27,11,58,12.60
2015,09,27,11,59,12.70
2015,09,27,12,00,12.80
2015,09,27,12,01,12.80
2015,09,27,12,02,12.90
2015,09,27,12,03,13.00
2015,09,27,12,04,13.00
2015,09,27,12,05,13.10
2015,09,27,12,06,13.20
2015,09,27,12,07,13.10
2015,09,27,12,08,13.10
2015,09,27,12,09,13.10
2015,09,27,12,10,13.10
2015,09,27,12,11,13.20
2015,09,27,12,12,13.30
2015,09,27,12,13,13.40
2015,09,27,12,14,13.50
2015,09,27,12,15,13.50
2015,09,27,12,16,13.60
2015,09,27,12,17,13.60
2015,09,27,12,18,13.70
2015,09,27,12,19,13.70
2015,09,27,12,20,13.70
2015,09,27,12,21,13.70
2015,09,27,12,22,13.70
2015,09,27,12,23,13.80
2015,09,27,12,24,13.90
2015,09,27,12,25,14.00
2015,09,27,12,26,14.10
2015,09,27,12,27,14.10
2015,09,27,12,28,14.20
2015,09,27,12,29,14.20
2015,09,27,12,30,14.30
2015,09,27,12,31,14.30
2015,09,27,12,32,14.40
2015,09,27,12,33,14.50
2015,09,27,12,34,14.70
2015,09,27,12,35,14.80
2015,09,27,12,36,14.90
2015,09,27,12,37,15.00
2015,09,27,12,38,15.10
2015,09,27,12,39,15.20
2015,09,27,12,40,15.20
2015,09,27,12,41,15.20
2015,09,27,12,42,15.20
2015,09,27,12,43,15.20
2015,09,27,12,44,15.10
2015,09,27,12,45,15.10
2015,09,27,12,46,15.10
2015,09,27,12,47,15.10
2015,09,27,12,48,15.20
2015,09,27,12,49,15.20
2015,09,27,12,50,15.20
2015,09,27,12,51,15.30
2015,09,27,12,52,15.40
2015,09,27,12,53,15.50
2015,09,27,12,54,15.70
2015,09,27,12,55,15.80
2015,09,27,12,56,15.80
2015,09,27,12,57,15.90
2015,09,27,12,58,15.90
2015,09,27,12,59,15.90
2015,09,27,13,00,15.90
2015,09,27,13,01,16.00
2015,09,27,13,02,16.10
2015,09,27,13,03,16.10
2015,09,27,13,04,16.20
2015,09,27,13,05,16.30
2015,09,27,13,06,16.30
2015,09,27,13,07,16.30
2015,09,27,13,08,16.30
2015,09,27,13,09,16.40
2015,09,27,13,10,16.50
2015,09,27,13,11,16.50
2015,09,27,13,12,16.60
2015,09,27,13,13,16.60
2015,09,27,13,14,16.60
2015,09,27,13,15,16.60
2015,09,27,13,16,16.70
2015,09,27,13,17,16.80
2015,09,27,13,18,16.90
2015,09,27,13,19,17.00
2015,09,27,13,20,17.10
2015,09,27,13,21,17.20
2015,09,27,13,22,17.20
2015,09,27,13,23,17.20
2015,09,27,13,24,17.20
2015,09,27,13,25,17.20
2015,09,27,13,26,17.10
2015,09,27,13,27,17.00
2015,09,27,13,28,17.00
2015,09,27,13,29,16.90
2015,09,27,13,30,16.90
2015,09,27,13,31,16.90
2015,09,27,13,32,16.90
2015,09,27,13,33,16.90
2015,09,27,13,34,17.00
2015,09,27,13,35,17.10
2015,09,27,13,36,17.20
2015,09,27,13,37,17.20
2015,09,27,13,38,17.30
2015,09,27,13,39,17.30
2015,09,27,13,40,17.40
2015,09,27,13,41,17.50
2015,09,27,13,42,17.50
2015,09,27,13,43,17.60
2015,09,27,13,44,17.60
2015,09,27,13,45,17.70
2015,09,27,13,46,17.70
2015,09,27,13,47,17.70
2015,09,27,13,48,17.80
2015,09,27,13,49,17.80
2015,09,27,13,50,17.90
2015,09,27,13,51,18.00
2015,09,27,13,52,18.00
2015,09,27,13,53,18.00
2015,09,27,13,54,18.00
2015,09,27,13,55,18.00
2015,09,27,13,56,18.00
2015,09,27,13,57,18.00
2015,09,27,13,58,18.00
2015,09,27,13,59,18.00
2015,09,27,14,00,18.00
2015,09,27,14,01,17.90
2015,09,27,14,02,17.90
2015,09,27,14,03,17.80
2015,09,27,14,04,17.70
2015,09,27,14,05,17.60
2015,09,27,14,06,17.60
2015,09,27,14,07,17.50
2015,09,27,14,08,17.50
2015,09,27,14,09,17.50
2015,09,27,14,10,17.40
2015,09,27,14,11,17.40
2015,09,27,14,12,17.40
2015,09,27,14,13,17.40
2015,09,27,14,14,17.50
2015,09,27,14,15,17.50
2015,09,27,14,16,17.50
2015,09,27,14,17,17.40
2015,09,27,14,18,17.40
2015,09,27,14,19,17.40
2015,09,27,14,20,17.40
2015,09,27,14,21,17.40
2015,09,27,14,22,17.30
2015,09,27,14,23,17.30
2015,09,27,14,24,17.20
2015,09,27,14,25,17.30
2015,09,27,14,26,17.30
2015,09,27,14,27,17.30
2015,09,27,14,28,17.40
2015,09,27,14,29,17.40
2015,09,27,14,30,17.40
2015,09,27,14,31,17.40
2015,09,27,14,32,17.40
2015,09,27,14,33,17.50
2015,09,27,14,34,17.50
2015,09,27,14,35,17.60
2015,09,27,14,36,17.60
2015,09,27,14,37,17.50
2015,09,27,14,38,17.50
2015,09,27,14,39,17.40
2015,09,27,14,40,17.40
2015,09,27,14,41,17.40
2015,09,27,14,42,17.30
2015,09,27,14,43,17.30
2015,09,27,14,44,17.30
2015,09,27,14,45,17.30
2015,09,27,14,46,17.30
2015,09,27,14,47,17.40
2015,09,27,14,48,17.40
2015,09,27,14,49,17.40
2015,09,27,14,50,17.40
2015,09,27,14,51,17.40
2015,09,27,14,52,17.40
2015,09,27,14,53,17.40
2015,09,27,14,54,17.40
2015,09,27,14,55,17.40
2015,09,27,14,56,17.30
2015,09,27,14,57,17.30
2015,09,27,14,58,17.30
2015,09,27,14,59,17.30
2015,09,27,15,00,17.30
2015,09,27,15,01,17.30
2015,09,27,15,02,17.30
2015,09,27,15,03,17.30
2015,09,27,15,04,17.30
2015,09,27,15,05,17.30
2015,09,27,15,06,17.30
2015,09,27,15,07,17.30
2015,09,27,15,08,17.30
2015,09,27,15,09,17.30
2015,09,27,15,10,17.30
2015,09,27,15,11,17.30
2015,09,27,15,12,17.30
2015,09,27,15,13,17.40
2015,09,27,15,14,17.40
2015,09,27,15,15,17.40
2015,09,27,15,16,17.40
2015,09,27,15,17,17.50
2015,09,27,15,18,17.50
2015,09,27,15,19,17.50
2015,09,27,15,20,17.40
2015,09,27,15,21,17.40
2015,09,27,15,22,17.40
2015,09,27,15,23,17.30
2015,09,27,15,24,17.30
2015,09,27,15,25,17.30
2015,09,27,15,26,17.30
2015,09,27,15,27,17.30
2015,09,27,15,28,17.40
2015,09,27,15,29,17.40
2015,09,27,15,30,17.50
2015,09,27,15,31,17.50
2015,09,27,15,32,17.50
2015,09,27,15,33,17.50
2015,09,27,15,34,17.50
2015,09,27,15,35,17.50
2015,09,27,15,36,17.40
2015,09,27,15,37,17.50
2015,09,27,15,38,17.50
2015,09,27,15,39,17.60
2015,09,27,15,40,17.60
2015,09,27,15,41,17.60
2015,09,27,15,42,17.70
2015,09,27,15,43,17.70
2015,09,27,15,44,17.70
2015,09,27,15,45,17.70
2015,09,27,15,46,17.80
2015,09,27,15,47,17.80
2015,09,27,15,48,17.70
2015,09,27,15,49,17.70
2015,09,27,15,50,17.70
2015,09,27,15,51,17.70
2015,09,27,15,52,17.80
2015,09,27,15,53,17.80
2015,09,27,15,54,17.80
2015,09,27,15,55,17.80
2015,09,27,15,56,17.80
2015,09,27,15,57,17.80
2015,09,27,15,58,17.80
2015,09,27,15,59,17.80
2015,09,27,16,00,17.80
2015,09,27,16,01,17.80
2015,09,27,16,02,17.80
2015,09,27,16,03,17.80
2015,09,27,16,04,17.80
2015,09,27,16,05,17.90
2015,09,27,16,06,17.90
2015,09,27,16,07,17.90
2015,09,27,16,08,17.80
2015,09,27,16,09,17.80
2015,09,27,16,10,17.80
2015,09,27,16,11,17.80
2015,09,27,16,12,17.80
2015,09,27,16,13,17.80
2015,09,27,16,14,17.80
2015,09,27,16,15,17.80
2015,09,27,16,16,17.80
2015,09,27,16,17,17.80
2015,09,27,16,18,17.80
2015,09,27,16,19,17.80
2015,09,27,16,20,17.80
2015,09,27,16,21,17.80
2015,09,27,16,22,17.80
2015,09,27,16,23,17.70
2015,09,27,16,24,17.70
2015,09,27,16,25,17.70
2015,09,27,16,26,17.70
2015,09,27,16,27,17.70
2015,09,27,16,28,17.70
2015,09,27,16,29,17.70
2015,09,27,16,30,17.70
2015,09,27,16,31,17.70
2015,09,27,16,32,17.70
2015,09,27,16,33,17.70
2015,09,27,16,34,17.70
2015,09,27,16,35,17.70
2015,09,27,16,36,17.70
2015,09,27,16,37,17.60
2015,09,27,16,38,17.60
2015,09,27,16,39,17.60
2015,09,27,16,40,17.60
2015,09,27,16,41,17.60
2015,09,27,16,42,17.60
2015,09,27,16,43,17.50
2015,09,27,16,44,17.60
2015,09,27,16,45,17.60
2015,09,27,16,46,17.60
2015,09,27,16,47,17.60
2015,09,27,16,48,17.60
2015,09,27,16,49,17.60
2015,09,27,16,50,17.60
2015,09,27,16,51,17.50
2015,09,27,16,52,17.50
2015,09,27,16,53,17.50
2015,09,27,16,54,17.50
2015,09,27,16,55,17.50
2015,09,27,16,56,17.50
2015,09,27,16,57,17.50
2015,09,27,16,58,17.50
2015,09,27,16,59,17.50
2015,09,27,17,00,17.50
2015,09,27,17,01,17.60
2015,09,27,17,02,17.60
2015,09,27,17,03,17.60
2015,09,27,17,04,17.60
2015,09,27,17,05,17.60
2015,09,27,17,06,17.60
2015,09,27,17,07,17.60
2015,09,27,17,08,17.60
2015,09,27,17,09,17.60
2015,09,27,17,10,17.50
2015,09,27,17,11,17.50
2015,09,27,17,12,17.50
2015,09,27,17,13,17.50
2015,09,27,17,14,17.50
2015,09,27,17,15,17.50
2015,09,27,17,16,17.50
2015,09,27,17,17,17.50
2015,09,27,17,18,17.50
2015,09,27,17,19,17.40
2015,09,27,17,20,17.40
2015,09,27,17,21,17.40
2015,09,27,17,22,17.40
2015,09,27,17,23,17.40
2015,09,27,17,24,17.40
2015,09,27,17,25,17.40
2015,09,27,17,26,17.40
2015,09,27,17,27,17.50
2015,09,27,17,28,17.40
2015,09,27,17,29,17.40
2015,09,27,17,30,17.40
2015,09,27,17,31,17.40
2015,09,27,17,32,17.40
2015,09,27,17,33,17.40
2015,09,27,17,34,17.40
2015,09,27,17,35,17.40
2015,09,27,17,36,17.40
2015,09,27,17,37,17.40
2015,09,27,17,38,17.40
2015,09,27,17,39,17.40
2015,09,27,17,40,17.30
2015,09,27,17,41,17.30
2015,09,27,17,42,17.30
2015,09,27,17,43,17.30
2015,09,27,17,44,17.30
2015,09,27,17,45,17.20
2015,09,27,17,46,17.20
2015,09,27,17,47,17.20